| time (UTC) | temp F | wind direction | speed knots | gust knots | rain 1hr in | rain 24hr in | rain mn in | humidity % | barometer mb |
| 20260903053544 | 64 | 0 | 1.7 | 9.6 | 0.00 | 0.00 | 0.00 | 70 | 1017.7 |
| 20260903053105 | 64 | 0 | 0.9 | 9.6 | 0.00 | 0.00 | 0.00 | 70 | 1017.7 |
| 20260903052543 | 64 | 175 | 0.9 | 7.0 | 0.00 | 0.00 | 0.00 | 69 | 1017.6 |
| 20260903052045 | 64 | 0 | 0.0 | 7.0 | 0.00 | 0.00 | 0.00 | 69 | 1017.8 |
| 20260903051608 | 64 | 0 | 0.0 | 7.0 | 0.00 | 0.00 | 0.00 | 70 | 1018.0 |
| 20260903051044 | 64 | 205 | 0.0 | 7.8 | 0.00 | 0.00 | 0.00 | 69 | 1018.2 |
| 20260903050543 | 64 | 0 | 0.9 | 8.7 | 0.00 | 0.00 | 0.00 | 70 | 1018.1 |
| 20260903050114 | 64 | 0 | 1.7 | 8.7 | 0.00 | 0.00 | 0.00 | 70 | 1018.3 |
| 20260903045545 | 64 | 159 | 0.9 | 8.7 | 0.00 | 0.00 | 0.00 | 70 | 1018.2 |
| 20260903045042 | 64 | 0 | 1.7 | 9.6 | 0.00 | 0.00 | 0.00 | 70 | 1018.3 |
| 20260903044606 | 63 | 0 | 1.7 | 9.6 | 0.00 | 0.00 | 0.00 | 71 | 1018.1 |
| 20260903044043 | 63 | 0 | 0.0 | 6.1 | 0.00 | 0.00 | 0.00 | 72 | 1018.1 |
| 20260903043543 | 63 | 237 | 0.0 | 6.1 | 0.00 | 0.00 | 0.00 | 73 | 1018.2 |
| 20260903043104 | 63 | 0 | 0.0 | 6.1 | 0.00 | 0.00 | 0.00 | 73 | 1018.3 |
| 20260903042546 | 63 | 0 | 0.0 | 6.1 | 0.00 | 0.00 | 0.00 | 73 | 1018.4 |
| 20260903042046 | 62 | 0 | 0.0 | 6.1 | 0.00 | 0.00 | 0.00 | 74 | 1018.3 |
| 20260903041559 | 62 | 0 | 0.0 | 5.2 | 0.00 | 0.00 | 0.00 | 74 | 1018.3 |
| 20260903041047 | 63 | 0 | 0.0 | 2.6 | 0.00 | 0.00 | 0.00 | 74 | 1018.2 |
| 20260903040549 | 63 | 0 | 0.0 | 2.6 | 0.00 | 0.00 | 0.00 | 74 | 1018.2 |
| 20260903040109 | 63 | 186 | 0.0 | 4.3 | 0.00 | 0.00 | 0.00 | 74 | 1018.4 |
| 20260903035542 | 63 | 0 | 0.0 | 5.2 | 0.00 | 0.00 | 0.00 | 74 | 1018.4 |
| 20260903035043 | 63 | 215 | 0.0 | 5.2 | 0.00 | 0.00 | 0.00 | 74 | 1018.7 |
| 20260903034602 | 63 | 0 | 0.0 | 4.3 | 0.00 | 0.00 | 0.00 | 74 | 1018.9 |
| 20260903034043 | 63 | 0 | 0.0 | 7.0 | 0.00 | 0.00 | 0.00 | 74 | 1018.9 |
| 20260903033549 | 63 | 0 | 0.0 | 7.0 | 0.00 | 0.00 | 0.00 | 74 | 1018.9 |
| 20260903033103 | 63 | 0 | 0.0 | 7.0 | 0.00 | 0.00 | 0.00 | 74 | 1018.9 |
| 20260903032543 | 63 | 0 | 0.0 | 5.2 | 0.00 | 0.00 | 0.00 | 73 | 1018.9 |
| 20260903032046 | 63 | 0 | 0.0 | 4.3 | 0.00 | 0.00 | 0.00 | 74 | 1018.9 |
| 20260903031606 | 63 | 0 | 0.0 | 6.1 | 0.00 | 0.00 | 0.00 | 74 | 1018.8 |
| 20260903031047 | 62 | 0 | 0.0 | 6.1 | 0.00 | 0.00 | 0.00 | 75 | 1019.0 |
| 20260903030546 | 62 | 195 | 0.0 | 4.3 | 0.00 | 0.00 | 0.00 | 75 | 1019.2 |
| 20260903030105 | 62 | 0 | 0.0 | 1.7 | 0.00 | 0.00 | 0.00 | 75 | 1019.0 |
| 20260903025545 | 61 | 0 | 0.0 | 0.0 | 0.00 | 0.00 | 0.00 | 75 | 1018.9 |
| 20260903025043 | 61 | 0 | 0.0 | 0.0 | 0.00 | 0.00 | 0.00 | 76 | 1018.9 |
| 20260903024604 | 62 | 0 | 0.0 | 0.0 | 0.00 | 0.00 | 0.00 | 75 | 1019.0 |
| 20260903024046 | 62 | 0 | 0.0 | 0.0 | 0.00 | 0.00 | 0.00 | 74 | 1019.0 |
| 20260903023546 | 62 | 0 | 0.0 | 2.6 | 0.00 | 0.00 | 0.00 | 74 | 1019.1 |
| 20260903023107 | 63 | 0 | 0.0 | 2.6 | 0.00 | 0.00 | 0.00 | 74 | 1019.3 |
| 20260903022543 | 63 | 0 | 0.0 | 7.0 | 0.00 | 0.00 | 0.00 | 75 | 1019.3 |
| 20260903022046 | 63 | 0 | 0.0 | 7.0 | 0.00 | 0.00 | 0.00 | 75 | 1019.3 |
| 20260903021559 | 63 | 0 | 0.0 | 7.0 | 0.00 | 0.00 | 0.00 | 75 | 1019.4 |
| 20260903021046 | 63 | 0 | 0.0 | 7.0 | 0.00 | 0.00 | 0.00 | 74 | 1019.6 |
| 20260903020542 | 63 | 0 | 0.0 | 3.5 | 0.00 | 0.00 | 0.00 | 74 | 1019.8 |
| 20260903020105 | 63 | 0 | 0.0 | 0.0 | 0.00 | 0.00 | 0.00 | 74 | 1019.6 |
| 20260903015543 | 63 | 0 | 0.0 | 0.0 | 0.00 | 0.00 | 0.00 | 74 | 1019.6 |
| 20260903015046 | 63 | 0 | 0.0 | 0.0 | 0.00 | 0.00 | 0.00 | 73 | 1019.6 |
| 20260903014633 | 63 | 0 | 0.0 | 0.0 | 0.00 | 0.00 | 0.00 | 73 | 1019.7 |
| 20260903014044 | 63 | 0 | 0.0 | 0.0 | 0.00 | 0.00 | 0.00 | 73 | 1019.7 |
| 20260903013544 | 63 | 0 | 0.0 | 8.7 | 0.00 | 0.00 | 0.00 | 73 | 1019.8 |
| 20260903013122 | 63 | 0 | 0.0 | 8.7 | 0.00 | 0.00 | 0.00 | 72 | 1019.8 |
| 20260903012543 | 63 | 238 | 0.0 | 7.8 | 0.00 | 0.00 | 0.00 | 73 | 1019.7 |
| 20260903012045 | 63 | 0 | 0.0 | 6.1 | 0.00 | 0.00 | 0.00 | 73 | 1019.8 |
| 20260903011608 | 63 | 0 | 0.0 | 6.1 | 0.00 | 0.00 | 0.00 | 74 | 1019.9 |
| 20260903011043 | 63 | 175 | 0.0 | 6.1 | 0.00 | 0.00 | 0.00 | 74 | 1019.9 |
| 20260903010546 | 62 | 0 | 0.0 | 1.7 | 0.00 | 0.00 | 0.00 | 75 | 1019.9 |
| 20260903010107 | 62 | 0 | 0.0 | 1.7 | 0.00 | 0.00 | 0.00 | 75 | 1019.8 |
| 20260903005547 | 62 | 0 | 0.0 | 0.0 | 0.00 | 0.00 | 0.00 | 75 | 1019.8 |
| 20260903005045 | 62 | 0 | 0.0 | 0.0 | 0.00 | 0.00 | 0.00 | 75 | 1019.9 |
| 20260903004605 | 63 | 0 | 0.0 | 4.3 | 0.00 | 0.00 | 0.00 | 74 | 1020.0 |
| 20260903004044 | 63 | 0 | 0.0 | 4.3 | 0.00 | 0.00 | 0.00 | 74 | 1020.0 |
| 20260903003544 | 63 | 0 | 0.0 | 4.3 | 0.00 | 0.00 | 0.00 | 74 | 1020.1 |
| 20260903003102 | 63 | 0 | 0.0 | 3.5 | 0.00 | 0.00 | 0.00 | 74 | 1020.2 |
| 20260903002547 | 63 | 0 | 0.0 | 5.2 | 0.00 | 0.00 | 0.00 | 74 | 1020.1 |
| 20260903002046 | 63 | 0 | 0.0 | 5.2 | 0.00 | 0.00 | 0.00 | 74 | 1020.3 |
| 20260903001601 | 63 | 0 | 0.0 | 1.7 | 0.00 | 0.00 | 0.00 | 74 | 1020.2 |
| 20260903001046 | 63 | 0 | 0.0 | 4.3 | 0.00 | 0.00 | 0.00 | 75 | 1020.4 |
| 20260903000548 | 62 | 0 | 0.0 | 4.3 | 0.00 | 0.00 | 0.00 | 76 | 1020.3 |
| 20260903000109 | 62 | 0 | 0.0 | 3.5 | 0.00 | 0.00 | 0.00 | 76 | 1020.3 |
| 20260902235547 | 62 | 0 | 0.0 | 3.5 | 0.00 | 0.00 | 0.00 | 77 | 1020.2 |
| 20260902235043 | 62 | 0 | 0.0 | 2.6 | 0.00 | 0.00 | 0.00 | 77 | 1020.4 |
| 20260902234605 | 62 | 0 | 0.0 | 2.6 | 0.00 | 0.00 | 0.00 | 77 | 1020.3 |
| 20260902234044 | 62 | 0 | 0.0 | 0.0 | 0.00 | 0.00 | 0.00 | 77 | 1020.4 |
| 20260902233543 | 62 | 0 | 0.0 | 0.0 | 0.00 | 0.00 | 0.00 | 78 | 1020.4 |
| 20260902233104 | 62 | 0 | 0.0 | 0.0 | 0.00 | 0.00 | 0.00 | 77 | 1020.5 |
| 20260902232542 | 62 | 0 | 0.0 | 0.0 | 0.00 | 0.00 | 0.00 | 77 | 1020.6 |
| 20260902232046 | 62 | 0 | 0.0 | 0.0 | 0.00 | 0.00 | 0.00 | 78 | 1020.6 |
| 20260902231602 | 62 | 0 | 0.0 | 0.0 | 0.00 | 0.00 | 0.00 | 77 | 1020.7 |
| 20260902231044 | 62 | 0 | 0.0 | 0.0 | 0.00 | 0.00 | 0.00 | 76 | 1020.7 |
| 20260902230548 | 62 | 0 | 0.0 | 0.0 | 0.00 | 0.00 | 0.00 | 76 | 1020.8 |
| 20260902230104 | 62 | 0 | 0.0 | 0.0 | 0.00 | 0.00 | 0.00 | 76 | 1020.8 |
| 20260902225546 | 62 | 0 | 0.0 | 0.0 | 0.00 | 0.00 | 0.00 | 76 | 1020.9 |
| 20260902225044 | 62 | 0 | 0.0 | 0.0 | 0.00 | 0.00 | 0.00 | 76 | 1020.8 |
| 20260902224611 | 62 | 0 | 0.0 | 0.0 | 0.00 | 0.00 | 0.00 | 78 | 1020.9 |
| 20260902224044 | 62 | 0 | 0.0 | 0.0 | 0.00 | 0.00 | 0.00 | 78 | 1020.9 |
| 20260902223542 | 62 | 0 | 0.0 | 0.0 | 0.00 | 0.00 | 0.00 | 80 | 1020.9 |
| 20260902223110 | 62 | 0 | 0.0 | 0.0 | 0.00 | 0.00 | 0.00 | 80 | 1020.9 |
| 20260902222542 | 61 | 0 | 0.0 | 0.0 | 0.00 | 0.00 | 0.00 | 81 | 1020.9 |
| 20260902222043 | 61 | 0 | 0.0 | 0.0 | 0.00 | 0.00 | 0.00 | 82 | 1020.9 |
| 20260902221600 | 61 | 0 | 0.0 | 0.0 | 0.00 | 0.00 | 0.00 | 83 | 1021.1 |
| 20260902221042 | 60 | 0 | 0.0 | 0.0 | 0.00 | 0.00 | 0.00 | 83 | 1021.1 |
| 20260902220546 | 60 | 0 | 0.0 | 0.0 | 0.00 | 0.00 | 0.00 | 83 | 1021.2 |
| 20260902220109 | 60 | 0 | 0.0 | 0.0 | 0.00 | 0.00 | 0.00 | 83 | 1021.0 |
| 20260902215542 | 60 | 0 | 0.0 | 0.0 | 0.00 | 0.00 | 0.00 | 83 | 1021.0 |
| 20260902215042 | 61 | 0 | 0.0 | 0.0 | 0.00 | 0.00 | 0.00 | 82 | 1021.0 |
| 20260902214615 | 61 | 0 | 0.0 | 0.0 | 0.00 | 0.00 | 0.00 | 82 | 1021.1 |
| 20260902214046 | 61 | 0 | 0.0 | 0.0 | 0.00 | 0.00 | 0.00 | 82 | 1021.1 |
| 20260902213546 | 61 | 0 | 0.0 | 0.0 | 0.00 | 0.00 | 0.00 | 82 | 1021.1 |
| 20260902213104 | 61 | 0 | 0.0 | 0.0 | 0.00 | 0.00 | 0.00 | 81 | 1021.1 |
| 20260902212546 | 61 | 0 | 0.0 | 0.0 | 0.00 | 0.00 | 0.00 | 81 | 1021.0 |
| 20260902212045 | 61 | 0 | 0.0 | 0.0 | 0.00 | 0.00 | 0.00 | 80 | 1021.0 |
| 20260902211601 | 61 | 0 | 0.0 | 0.0 | 0.00 | 0.00 | 0.00 | 80 | 1021.1 |
| 20260902211042 | 62 | 0 | 0.0 | 0.0 | 0.00 | 0.00 | 0.00 | 80 | 1021.1 |
| 20260902210547 | 62 | 0 | 0.0 | 0.0 | 0.00 | 0.00 | 0.00 | 79 | 1021.3 |
| 20260902205542 | 62 | 0 | 0.0 | 0.0 | 0.00 | 0.00 | 0.00 | 79 | 1021.2 |
| 20260902205043 | 62 | 0 | 0.0 | 0.0 | 0.00 | 0.00 | 0.00 | 78 | 1021.2 |
| 20260902204606 | 62 | 0 | 0.0 | 0.0 | 0.00 | 0.00 | 0.00 | 78 | 1021.3 |
| 20260902204043 | 62 | 0 | 0.0 | 0.0 | 0.00 | 0.00 | 0.00 | 77 | 1021.3 |
| 20260902203542 | 63 | 0 | 0.0 | 0.0 | 0.00 | 0.00 | 0.00 | 77 | 1021.3 |
| 20260902203104 | 63 | 0 | 0.0 | 0.0 | 0.00 | 0.00 | 0.00 | 77 | 1021.3 |
| 20260902202545 | 63 | 0 | 0.0 | 0.0 | 0.00 | 0.00 | 0.00 | 77 | 1021.3 |
| 20260902202045 | 63 | 0 | 0.0 | 0.0 | 0.00 | 0.00 | 0.00 | 77 | 1021.3 |
| 20260902201559 | 63 | 0 | 0.0 | 0.0 | 0.00 | 0.00 | 0.00 | 76 | 1021.3 |
| 20260902201046 | 64 | 0 | 0.0 | 0.0 | 0.00 | 0.00 | 0.00 | 76 | 1021.2 |
| 20260902200545 | 64 | 0 | 0.0 | 0.0 | 0.00 | 0.00 | 0.00 | 76 | 1021.2 |
| 20260902200109 | 64 | 0 | 0.0 | 0.0 | 0.00 | 0.00 | 0.00 | 76 | 1021.3 |
| 20260902195547 | 64 | 0 | 0.0 | 0.0 | 0.00 | 0.00 | 0.00 | 77 | 1021.4 |
| 20260902195042 | 64 | 0 | 0.0 | 0.0 | 0.00 | 0.00 | 0.00 | 77 | 1021.5 |
| 20260902194607 | 64 | 0 | 0.0 | 0.0 | 0.00 | 0.00 | 0.00 | 76 | 1021.5 |
| 20260902194046 | 64 | 0 | 0.0 | 0.0 | 0.00 | 0.00 | 0.00 | 76 | 1021.3 |
| 20260902193542 | 64 | 0 | 0.0 | 0.0 | 0.00 | 0.00 | 0.00 | 76 | 1021.5 |
| 20260902193104 | 64 | 0 | 0.0 | 0.0 | 0.00 | 0.00 | 0.00 | 76 | 1021.4 |
| 20260902192544 | 64 | 0 | 0.0 | 0.0 | 0.00 | 0.00 | 0.00 | 76 | 1021.4 |
| 20260902192043 | 64 | 0 | 0.0 | 0.0 | 0.00 | 0.00 | 0.00 | 76 | 1021.4 |
| 20260902191558 | 64 | 0 | 0.0 | 0.0 | 0.00 | 0.00 | 0.00 | 76 | 1021.3 |
| 20260902191045 | 64 | 0 | 0.0 | 0.0 | 0.00 | 0.00 | 0.00 | 78 | 1021.2 |
| 20260902190545 | 64 | 0 | 0.0 | 0.0 | 0.00 | 0.00 | 0.00 | 78 | 1021.3 |
| 20260902190108 | 64 | 0 | 0.0 | 0.0 | 0.00 | 0.00 | 0.00 | 79 | 1021.3 |
| 20260902185544 | 64 | 0 | 0.0 | 0.0 | 0.00 | 0.00 | 0.00 | 79 | 1021.4 |
| 20260902185043 | 64 | 0 | 0.0 | 0.0 | 0.00 | 0.00 | 0.00 | 78 | 1021.3 |
| 20260902184607 | 64 | 0 | 0.0 | 0.0 | 0.00 | 0.00 | 0.00 | 78 | 1021.3 |
| 20260902184043 | 64 | 0 | 0.0 | 0.0 | 0.00 | 0.00 | 0.00 | 78 | 1021.3 |
| 20260902183543 | 64 | 0 | 0.0 | 0.0 | 0.00 | 0.00 | 0.00 | 77 | 1021.3 |
| 20260902183109 | 64 | 0 | 0.0 | 0.0 | 0.00 | 0.00 | 0.00 | 77 | 1021.1 |
| 20260902182550 | 65 | 0 | 0.0 | 0.0 | 0.00 | 0.00 | 0.00 | 77 | 1021.1 |
| 20260902182043 | 65 | 0 | 0.0 | 0.0 | 0.00 | 0.00 | 0.00 | 76 | 1021.0 |
| 20260902181558 | 65 | 0 | 0.0 | 0.0 | 0.00 | 0.00 | 0.00 | 76 | 1021.0 |
| 20260902181043 | 65 | 0 | 0.0 | 0.0 | 0.00 | 0.00 | 0.00 | 75 | 1021.0 |
| 20260902180542 | 65 | 0 | 0.0 | 0.0 | 0.00 | 0.00 | 0.00 | 75 | 1020.9 |
| 20260902180106 | 65 | 0 | 0.0 | 0.0 | 0.00 | 0.00 | 0.00 | 74 | 1020.9 |
| 20260902175543 | 65 | 0 | 0.0 | 0.0 | 0.00 | 0.00 | 0.00 | 74 | 1020.9 |
| 20260902175045 | 65 | 0 | 0.0 | 0.0 | 0.00 | 0.00 | 0.00 | 73 | 1020.9 |
| 20260902174604 | 65 | 0 | 0.0 | 0.0 | 0.00 | 0.00 | 0.00 | 73 | 1020.9 |
| 20260902174044 | 66 | 0 | 0.0 | 0.0 | 0.00 | 0.00 | 0.00 | 73 | 1020.8 |
| 20260902173545 | 66 | 0 | 0.0 | 0.0 | 0.00 | 0.00 | 0.00 | 72 | 1020.9 |
| 20260902173136 | 66 | 0 | 0.0 | 0.0 | 0.00 | 0.00 | 0.00 | 72 | 1020.9 |
| 20260902172542 | 66 | 0 | 0.0 | 0.0 | 0.00 | 0.00 | 0.00 | 71 | 1020.8 |
| 20260902172043 | 66 | 0 | 0.0 | 0.0 | 0.00 | 0.00 | 0.00 | 70 | 1020.9 |
| 20260902171626 | 66 | 0 | 0.0 | 0.0 | 0.00 | 0.00 | 0.00 | 69 | 1020.9 |
| 20260902171042 | 67 | 0 | 0.0 | 0.0 | 0.00 | 0.00 | 0.00 | 69 | 1020.9 |
| 20260902170542 | 67 | 0 | 0.0 | 0.0 | 0.00 | 0.00 | 0.00 | 68 | 1020.9 |
| 20260902170111 | 67 | 0 | 0.0 | 0.0 | 0.00 | 0.00 | 0.00 | 68 | 1020.9 |
| 20260902165543 | 67 | 0 | 0.0 | 0.0 | 0.00 | 0.00 | 0.00 | 66 | 1021.0 |
| 20260902165044 | 67 | 0 | 0.0 | 0.0 | 0.00 | 0.00 | 0.00 | 66 | 1020.9 |
| 20260902164601 | 67 | 0 | 0.0 | 0.0 | 0.00 | 0.00 | 0.00 | 66 | 1020.9 |
| 20260902164043 | 67 | 0 | 0.0 | 1.7 | 0.00 | 0.00 | 0.00 | 66 | 1021.0 |
| 20260902163542 | 67 | 0 | 0.0 | 1.7 | 0.00 | 0.00 | 0.00 | 67 | 1021.0 |
| 20260902163107 | 67 | 0 | 0.0 | 4.3 | 0.00 | 0.00 | 0.00 | 66 | 1021.0 |
| 20260902162546 | 67 | 0 | 0.0 | 7.0 | 0.00 | 0.00 | 0.00 | 67 | 1021.1 |
| 20260902162045 | 67 | 0 | 0.0 | 7.0 | 0.00 | 0.00 | 0.00 | 66 | 1021.1 |
| 20260902161606 | 67 | 0 | 0.0 | 3.5 | 0.00 | 0.00 | 0.00 | 66 | 1021.1 |
| 20260902161043 | 67 | 0 | 0.0 | 3.5 | 0.00 | 0.00 | 0.00 | 67 | 1021.1 |
| 20260902160542 | 67 | 0 | 0.0 | 0.0 | 0.00 | 0.00 | 0.00 | 68 | 1021.2 |
| 20260902160105 | 67 | 0 | 0.0 | 0.0 | 0.00 | 0.00 | 0.00 | 66 | 1021.2 |
| 20260902155546 | 68 | 0 | 0.0 | 0.0 | 0.00 | 0.00 | 0.00 | 67 | 1021.1 |
| 20260902155045 | 68 | 0 | 0.0 | 7.0 | 0.00 | 0.00 | 0.00 | 65 | 1021.2 |
| 20260902154604 | 68 | 0 | 0.0 | 7.0 | 0.00 | 0.00 | 0.00 | 64 | 1021.1 |
| 20260902154046 | 68 | 0 | 0.9 | 7.0 | 0.00 | 0.00 | 0.00 | 65 | 1021.1 |
| 20260902153546 | 68 | 0 | 1.7 | 7.0 | 0.00 | 0.00 | 0.00 | 64 | 1021.3 |
| 20260902153104 | 68 | 0 | 0.0 | 7.8 | 0.00 | 0.00 | 0.00 | 64 | 1021.2 |
| 20260902152546 | 69 | 234 | 0.0 | 7.8 | 0.00 | 0.00 | 0.00 | 64 | 1021.2 |
| 20260902152046 | 69 | 0 | 1.7 | 7.8 | 0.00 | 0.00 | 0.00 | 64 | 1021.2 |
| 20260902151602 | 68 | 0 | 0.9 | 7.0 | 0.00 | 0.00 | 0.00 | 63 | 1021.2 |
| 20260902151047 | 68 | 236 | 0.0 | 8.7 | 0.00 | 0.00 | 0.00 | 64 | 1021.3 |
| 20260902150546 | 68 | 0 | 2.6 | 8.7 | 0.00 | 0.00 | 0.00 | 64 | 1021.2 |
| 20260902150106 | 69 | 209 | 0.0 | 7.8 | 0.00 | 0.00 | 0.00 | 63 | 1021.3 |
| 20260902145546 | 69 | 249 | 0.9 | 7.8 | 0.00 | 0.00 | 0.00 | 62 | 1021.4 |
| 20260902145045 | 69 | 0 | 0.9 | 5.2 | 0.00 | 0.00 | 0.00 | 63 | 1021.4 |
| 20260902144556 | 69 | 0 | 0.0 | 0.9 | 0.00 | 0.00 | 0.00 | 63 | 1021.3 |
| 20260902144047 | 69 | 0 | 0.0 | 5.2 | 0.00 | 0.00 | 0.00 | 63 | 1021.3 |
| 20260902143550 | 69 | 0 | 0.9 | 5.2 | 0.00 | 0.00 | 0.00 | 63 | 1021.3 |
| 20260902143109 | 68 | 0 | 0.0 | 5.2 | 0.00 | 0.00 | 0.00 | 62 | 1021.3 |
| 20260902142547 | 68 | 0 | 0.0 | 4.3 | 0.00 | 0.00 | 0.00 | 65 | 1021.2 |
| 20260902142047 | 68 | 0 | 0.9 | 5.2 | 0.00 | 0.00 | 0.00 | 63 | 1021.3 |
| 20260902141610 | 68 | 0 | 0.0 | 5.2 | 0.00 | 0.00 | 0.00 | 62 | 1021.4 |
| 20260902141046 | 68 | 0 | 0.0 | 7.0 | 0.00 | 0.00 | 0.00 | 62 | 1021.2 |
| 20260902140547 | 69 | 0 | 0.0 | 7.0 | 0.00 | 0.00 | 0.00 | 61 | 1021.2 |
| 20260902135546 | 69 | 0 | 0.0 | 1.7 | 0.00 | 0.00 | 0.00 | 60 | 1021.3 |
| 20260902135046 | 69 | 0 | 0.0 | 6.1 | 0.00 | 0.00 | 0.00 | 60 | 1021.1 |
| 20260902134558 | 68 | 0 | 0.0 | 6.1 | 0.00 | 0.00 | 0.00 | 60 | 1021.1 |
| 20260902134045 | 68 | 0 | 0.0 | 3.5 | 0.00 | 0.00 | 0.00 | 60 | 1021.2 |
| 20260902133547 | 68 | 0 | 0.0 | 6.1 | 0.00 | 0.00 | 0.00 | 59 | 1021.1 |
| 20260902133106 | 69 | 0 | 0.0 | 7.0 | 0.00 | 0.00 | 0.00 | 60 | 1021.2 |
| 20260902132544 | 69 | 257 | 0.0 | 7.0 | 0.00 | 0.00 | 0.00 | 58 | 1021.2 |
| 20260902132047 | 69 | 0 | 0.0 | 8.7 | 0.00 | 0.00 | 0.00 | 58 | 1021.2 |
| 20260902131628 | 69 | 249 | 2.6 | 8.7 | 0.00 | 0.00 | 0.00 | 56 | 1021.2 |
| 20260902131046 | 70 | 0 | 0.0 | 6.1 | 0.00 | 0.00 | 0.00 | 59 | 1021.1 |
| 20260902130546 | 69 | 0 | 0.0 | 6.1 | 0.00 | 0.00 | 0.00 | 58 | 1021.2 |
| 20260902130059 | 69 | 0 | 0.0 | 6.1 | 0.00 | 0.00 | 0.00 | 58 | 1021.3 |
| 20260902125546 | 70 | 0 | 0.0 | 7.0 | 0.00 | 0.00 | 0.00 | 60 | 1021.3 |
| 20260902125047 | 70 | 0 | 0.0 | 7.0 | 0.00 | 0.00 | 0.00 | 59 | 1021.3 |
| 20260902124609 | 69 | 0 | 0.0 | 6.1 | 0.00 | 0.00 | 0.00 | 59 | 1021.4 |
| 20260902124046 | 71 | 0 | 1.7 | 8.7 | 0.00 | 0.00 | 0.00 | 60 | 1021.4 |
| 20260902123550 | 70 | 0 | 0.9 | 8.7 | 0.00 | 0.00 | 0.00 | 60 | 1021.5 |
| 20260902123152 | 69 | 0 | 3.5 | 8.7 | 0.00 | 0.00 | 0.00 | 61 | 1021.4 |
| 20260902122549 | 68 | 233 | 0.0 | 7.8 | 0.00 | 0.00 | 0.00 | 62 | 1021.4 |
| 20260902122046 | 68 | 0 | 1.7 | 7.8 | 0.00 | 0.00 | 0.00 | 63 | 1021.5 |
| 20260902121602 | 67 | 0 | 0.0 | 7.8 | 0.00 | 0.00 | 0.00 | 64 | 1021.6 |
| 20260902121046 | 67 | 259 | 0.9 | 7.8 | 0.00 | 0.00 | 0.00 | 65 | 1021.4 |
| 20260902120545 | 68 | 223 | 0.0 | 5.2 | 0.00 | 0.00 | 0.00 | 66 | 1021.4 |
| 20260902115548 | 67 | 0 | 0.9 | 6.1 | 0.00 | 0.00 | 0.00 | 64 | 1021.3 |
| 20260902115045 | 68 | 0 | 0.0 | 9.6 | 0.00 | 0.00 | 0.00 | 63 | 1021.4 |
| 20260902114557 | 68 | 0 | 1.7 | 9.6 | 0.00 | 0.00 | 0.00 | 62 | 1021.4 |
| 20260902114044 | 68 | 227 | 1.7 | 7.0 | 0.00 | 0.00 | 0.00 | 63 | 1021.4 |
| 20260902113542 | 68 | 0 | 0.0 | 7.0 | 0.00 | 0.00 | 0.00 | 63 | 1021.4 |
| 20260902113102 | 68 | 242 | 0.9 | 7.0 | 0.00 | 0.00 | 0.00 | 62 | 1021.4 |
| 20260902112544 | 68 | 0 | 1.7 | 7.0 | 0.00 | 0.00 | 0.00 | 60 | 1021.5 |
| 20260902112043 | 67 | 195 | 0.0 | 11.3 | 0.00 | 0.00 | 0.00 | 64 | 1021.5 |
| 20260902111602 | 67 | 0 | 0.0 | 11.3 | 0.00 | 0.00 | 0.00 | 63 | 1021.4 |
| 20260902111042 | 68 | 0 | 2.6 | 11.3 | 0.00 | 0.00 | 0.00 | 62 | 1021.4 |
| 20260902110542 | 69 | 238 | 1.7 | 8.7 | 0.00 | 0.00 | 0.00 | 62 | 1021.4 |
| 20260902110111 | 68 | 0 | 0.9 | 9.6 | 0.00 | 0.00 | 0.00 | 63 | 1021.4 |
| 20260902105545 | 68 | 229 | 3.5 | 11.3 | 0.00 | 0.00 | 0.00 | 63 | 1021.5 |
| 20260902105042 | 68 | 0 | 0.9 | 11.3 | 0.00 | 0.00 | 0.00 | 63 | 1021.4 |
| 20260902104608 | 68 | 219 | 0.9 | 7.8 | 0.00 | 0.00 | 0.00 | 66 | 1021.5 |
| 20260902104045 | 68 | 0 | 0.9 | 7.0 | 0.00 | 0.00 | 0.00 | 63 | 1021.5 |
| 20260902103541 | 68 | 224 | 0.0 | 6.1 | 0.00 | 0.00 | 0.00 | 64 | 1021.4 |
| 20260902103103 | 67 | 0 | 0.0 | 6.1 | 0.00 | 0.00 | 0.00 | 66 | 1021.5 |
| 20260902102542 | 66 | 0 | 0.0 | 8.7 | 0.00 | 0.00 | 0.00 | 65 | 1021.5 |
| 20260902102042 | 66 | 0 | 0.0 | 10.4 | 0.00 | 0.00 | 0.00 | 64 | 1021.5 |
| 20260902101558 | 66 | 225 | 2.6 | 10.4 | 0.00 | 0.00 | 0.00 | 66 | 1021.5 |
| 20260902101046 | 66 | 0 | 0.9 | 6.1 | 0.00 | 0.00 | 0.00 | 68 | 1021.5 |
| 20260902100546 | 67 | 0 | 0.0 | 7.0 | 0.00 | 0.00 | 0.00 | 64 | 1021.5 |
| 20260902095546 | 67 | 0 | 0.9 | 6.1 | 0.00 | 0.00 | 0.00 | 68 | 1021.4 |
| 20260902095044 | 67 | 0 | 0.0 | 4.3 | 0.00 | 0.00 | 0.00 | 72 | 1021.3 |
| 20260902094605 | 67 | 0 | 0.0 | 4.3 | 0.00 | 0.00 | 0.00 | 71 | 1021.4 |
| 20260902094045 | 66 | 0 | 0.0 | 4.3 | 0.00 | 0.00 | 0.00 | 72 | 1021.4 |
| 20260902093542 | 67 | 0 | 0.0 | 4.3 | 0.00 | 0.00 | 0.00 | 69 | 1021.5 |
| 20260902093100 | 67 | 0 | 0.0 | 1.7 | 0.00 | 0.00 | 0.00 | 74 | 1021.5 |
| 20260902092545 | 66 | 0 | 0.0 | 2.6 | 0.00 | 0.00 | 0.00 | 74 | 1021.6 |
| 20260902092042 | 65 | 0 | 0.0 | 4.3 | 0.00 | 0.00 | 0.00 | 74 | 1021.5 |
| 20260902091610 | 65 | 0 | 0.0 | 6.1 | 0.00 | 0.00 | 0.00 | 74 | 1021.5 |
| 20260902091045 | 65 | 218 | 0.0 | 6.1 | 0.00 | 0.00 | 0.00 | 73 | 1021.4 |
| 20260902090549 | 65 | 0 | 0.0 | 0.0 | 0.00 | 0.00 | 0.00 | 74 | 1021.5 |
| 20260902090109 | 65 | 0 | 0.0 | 0.0 | 0.00 | 0.00 | 0.00 | 74 | 1021.5 |
| 20260902085546 | 65 | 0 | 0.0 | 0.0 | 0.00 | 0.00 | 0.00 | 74 | 1021.5 |
| 20260902085046 | 65 | 0 | 0.0 | 0.0 | 0.00 | 0.00 | 0.00 | 74 | 1021.5 |
| 20260902084555 | 65 | 0 | 0.0 | 3.5 | 0.00 | 0.00 | 0.00 | 73 | 1021.5 |
| 20260902084046 | 66 | 0 | 0.0 | 3.5 | 0.00 | 0.00 | 0.00 | 73 | 1021.5 |
| 20260902083546 | 66 | 0 | 0.0 | 0.0 | 0.00 | 0.00 | 0.00 | 73 | 1021.5 |
| 20260902083058 | 66 | 0 | 0.0 | 3.5 | 0.00 | 0.00 | 0.00 | 75 | 1021.4 |
| 20260902082546 | 65 | 0 | 0.0 | 6.1 | 0.00 | 0.00 | 0.00 | 75 | 1021.5 |
| 20260902082046 | 65 | 0 | 0.0 | 6.1 | 0.00 | 0.00 | 0.00 | 74 | 1021.6 |
| 20260902081601 | 65 | 0 | 0.0 | 6.1 | 0.00 | 0.00 | 0.00 | 75 | 1021.5 |
| 20260902081046 | 65 | 0 | 0.0 | 6.1 | 0.00 | 0.00 | 0.00 | 76 | 1021.4 |
| 20260902080547 | 65 | 0 | 0.0 | 5.2 | 0.00 | 0.00 | 0.00 | 77 | 1021.4 |
| 20260902080100 | 64 | 0 | 0.9 | 5.2 | 0.00 | 0.00 | 0.00 | 79 | 1021.3 |
| 20260902075546 | 64 | 0 | 0.0 | 0.0 | 0.00 | 0.00 | 0.00 | 80 | 1021.2 |
| 20260902075047 | 63 | 0 | 0.0 | 0.0 | 0.00 | 0.00 | 0.00 | 80 | 1021.3 |
| 20260902074601 | 63 | 0 | 0.0 | 0.0 | 0.00 | 0.00 | 0.00 | 83 | 1021.1 |
| 20260902074048 | 63 | 0 | 0.0 | 0.0 | 0.00 | 0.00 | 0.00 | 83 | 1021.1 |
| 20260902073546 | 63 | 0 | 0.0 | 0.0 | 0.00 | 0.00 | 0.00 | 84 | 1021.3 |
| 20260902073103 | 63 | 0 | 0.0 | 0.0 | 0.00 | 0.00 | 0.00 | 83 | 1021.3 |
| 20260902072545 | 62 | 0 | 0.0 | 0.0 | 0.00 | 0.00 | 0.00 | 86 | 1021.2 |
| 20260902072048 | 61 | 0 | 0.0 | 0.0 | 0.00 | 0.00 | 0.00 | 88 | 1021.1 |
| 20260902071603 | 61 | 0 | 0.0 | 0.0 | 0.00 | 0.00 | 0.00 | 87 | 1021.0 |
| 20260902071046 | 61 | 0 | 0.0 | 0.0 | 0.00 | 0.00 | 0.00 | 88 | 1021.0 |
| 20260902070545 | 61 | 0 | 0.0 | 0.0 | 0.00 | 0.00 | 0.00 | 89 | 1021.0 |
| 20260902065548 | 60 | 0 | 0.0 | 0.0 | 0.00 | 0.00 | 0.00 | 91 | 1020.9 |
| 20260902065046 | 59 | 0 | 0.0 | 0.0 | 0.00 | 0.00 | 0.00 | 92 | 1020.8 |
| 20260902064606 | 59 | 0 | 0.0 | 0.0 | 0.00 | 0.00 | 0.00 | 93 | 1020.8 |
| 20260902064046 | 58 | 0 | 0.0 | 0.0 | 0.00 | 0.00 | 0.00 | 93 | 1020.9 |
| 20260902063546 | 58 | 0 | 0.0 | 0.0 | 0.00 | 0.00 | 0.00 | 93 | 1020.8 |
| 20260902063104 | 58 | 0 | 0.0 | 0.0 | 0.00 | 0.00 | 0.00 | 93 | 1020.8 |
| 20260902062547 | 58 | 0 | 0.0 | 0.0 | 0.00 | 0.00 | 0.00 | 94 | 1020.6 |
| 20260902062047 | 58 | 0 | 0.0 | 0.0 | 0.00 | 0.00 | 0.00 | 94 | 1020.8 |
| 20260902061627 | 58 | 0 | 0.0 | 0.0 | 0.00 | 0.00 | 0.00 | 94 | 1020.8 |
| 20260902061048 | 58 | 0 | 0.0 | 0.0 | 0.00 | 0.00 | 0.00 | 94 | 1020.8 |
| 20260902060546 | 57 | 0 | 0.0 | 0.0 | 0.00 | 0.00 | 0.00 | 94 | 1020.8 |
| 20260902060115 | 57 | 0 | 0.0 | 0.0 | 0.00 | 0.00 | 0.00 | 94 | 1020.7 |
| 20260902055547 | 57 | 0 | 0.0 | 0.0 | 0.00 | 0.00 | 0.00 | 95 | 1020.8 |
| 20260902055042 | 57 | 0 | 0.0 | 0.0 | 0.00 | 0.00 | 0.00 | 94 | 1020.9 |
| 20260902054555 | 56 | 0 | 0.0 | 0.0 | 0.00 | 0.00 | 0.00 | 94 | 1020.9 |
| 20260902054044 | 56 | 0 | 0.0 | 0.0 | 0.00 | 0.00 | 0.00 | 94 | 1020.9 |